Location: Unspecified
(49.2170°N, 0.0000°E)
Time: 14:29:12
(UTC+00:00)

SR - Pass Details

Date: 24 January 2021
Orbit: 573 x 882 km, 66.7° (Epoch: 05 March)

Event Time Altitude Azimuth Distance (km) Brightness Sun altitude
Exits shadow 03:50:44 22° 88° (E) 1,539 ? -37.3°
Drops below altitude 10° 03:53:39 10° 56° (ENE) 2,275 ? -36.8°
Sets 03:56:31 0° 44° (NE) 3,264 ? -36.3°
